Time,TemperatureF,DewpointF,PressureIn,WindDirection,WindDirectionDegrees,WindSpeedMPH,WindSpeedGustMPH,Humidity,HourlyPrecipIn,Conditions,Clouds,dailyrainin,SoftwareType,DateUTC
2013-07-29 00:02:00,77.0,73.8,30.06,SSW,213,2.0,3.0,90,0.00,,,0.01,Wunderground v.1.15,2013-07-29 04:02:00,
2013-07-29 00:04:00,77.0,73.8,30.06,SW,222,2.0,3.0,90,0.00,,,0.00,Wunderground v.1.15,2013-07-29 04:04:00,
2013-07-29 00:10:00,77.0,73.5,30.06,SW,229,2.0,2.0,89,0.00,,,0.00,Wunderground v.1.15,2013-07-29 04:10:00,
2013-07-29 00:14:00,76.8,73.6,30.06,SW,230,1.0,2.0,90,0.00,,,0.00,Wunderground v.1.15,2013-07-29 04:14:00,
2013-07-29 00:16:00,76.8,73.6,30.06,SW,227,2.0,3.0,90,0.00,,,0.00,Wunderground v.1.15,2013-07-29 04:16:00,
2013-07-29 00:22:00,76.7,73.5,30.06,SW,223,2.0,2.0,90,0.00,,,0.00,Wunderground v.1.15,2013-07-29 04:22:00,
2013-07-29 00:28:00,76.5,73.3,30.06,SW,219,1.0,2.0,90,0.00,,,0.00,Wunderground v.1.15,2013-07-29 04:28:00,
2013-07-29 00:34:00,76.4,73.6,30.06,SW,219,1.0,1.0,91,0.00,,,0.00,Wunderground v.1.15,2013-07-29 04:34:00,
2013-07-29 00:40:00,76.4,73.6,30.06,SSW,199,2.0,4.0,91,0.00,,,0.00,Wunderground v.1.15,2013-07-29 04:40:00,
2013-07-29 00:46:00,76.6,73.8,30.06,SSW,209,3.0,4.0,91,0.00,,,0.00,Wunderground v.1.15,2013-07-29 04:46:00,
2013-07-29 00:52:00,76.8,73.6,30.06,SSW,211,2.0,3.0,90,0.00,,,0.00,Wunderground v.1.15,2013-07-29 04:52:00,
2013-07-29 00:58:00,77.0,73.8,30.05,SSW,210,2.0,4.0,90,0.00,,,0.00,Wunderground v.1.15,2013-07-29 04:58:00,
2013-07-29 01:04:00,77.0,73.5,30.05,SW,227,3.0,4.0,89,0.00,,,0.00,Wunderground v.1.15,2013-07-29 05:04:00,
2013-07-29 01:10:00,76.9,73.7,30.05,SW,217,4.0,4.0,90,0.00,,,0.00,Wunderground v.1.15,2013-07-29 05:10:00,
2013-07-29 01:16:00,77.0,73.8,30.05,SW,217,3.0,4.0,90,0.00,,,0.00,Wunderground v.1.15,2013-07-29 05:16:00,
2013-07-29 01:22:00,77.1,73.6,30.05,South,183,2.0,2.0,89,0.00,,,0.00,Wunderground v.1.15,2013-07-29 05:22:00,
2013-07-29 01:28:00,76.7,73.5,30.06,South,187,3.0,3.0,90,0.00,,,0.00,Wunderground v.1.15,2013-07-29 05:28:00,
2013-07-29 01:34:00,76.4,73.2,30.05,South,182,4.0,4.0,90,0.00,,,0.00,Wunderground v.1.15,2013-07-29 05:34:00,
2013-07-29 01:40:00,76.3,73.5,30.06,South,173,4.0,4.0,91,0.00,,,0.00,Wunderground v.1.15,2013-07-29 05:40:00,
2013-07-29 01:46:00,76.2,73.4,30.06,SSE,163,4.0,5.0,91,0.00,,,0.00,Wunderground v.1.15,2013-07-29 05:46:00,
2013-07-29 01:52:00,76.0,73.2,30.05,South,181,3.0,3.0,91,0.00,,,0.00,Wunderground v.1.15,2013-07-29 05:52:00,
2013-07-29 01:58:00,75.8,73.3,30.06,South,183,3.0,3.0,92,0.00,,,0.00,Wunderground v.1.15,2013-07-29 05:58:00,
2013-07-29 02:04:00,75.6,73.1,30.05,SSE,159,1.0,6.0,92,0.00,,,0.00,Wunderground v.1.15,2013-07-29 06:04:00,
2013-07-29 02:10:00,75.6,73.1,30.06,SSE,167,1.0,1.0,92,0.00,,,0.00,Wunderground v.1.15,2013-07-29 06:10:00,
2013-07-29 02:16:00,75.4,72.9,30.05,South,173,1.0,3.0,92,0.00,,,0.00,Wunderground v.1.15,2013-07-29 06:16:00,
2013-07-29 02:22:00,75.2,73.0,30.05,SSW,205,3.0,3.0,93,0.00,,,0.00,Wunderground v.1.15,2013-07-29 06:22:00,
2013-07-29 02:28:00,75.3,73.1,30.05,South,191,4.0,5.0,93,0.00,,,0.00,Wunderground v.1.15,2013-07-29 06:28:00,
2013-07-29 02:34:00,75.6,72.8,30.05,South,184,4.0,5.0,91,0.00,,,0.00,Wunderground v.1.15,2013-07-29 06:34:00,
2013-07-29 02:40:00,75.3,72.8,30.05,SSE,168,4.0,4.0,92,0.00,,,0.00,Wunderground v.1.15,2013-07-29 06:40:00,
2013-07-29 02:46:00,75.2,72.7,30.05,SSW,195,4.0,6.0,92,0.00,,,0.00,Wunderground v.1.15,2013-07-29 06:46:00,
2013-07-29 02:52:00,75.3,72.8,30.05,SW,227,5.0,5.0,92,0.00,,,0.00,Wunderground v.1.15,2013-07-29 06:52:00,
2013-07-29 02:58:00,75.7,72.9,30.05,SSW,192,4.0,5.0,91,0.00,,,0.00,Wunderground v.1.15,2013-07-29 06:58:00,
2013-07-29 03:04:00,75.5,72.7,30.04,SSW,202,4.0,4.0,91,0.00,,,0.00,Wunderground v.1.15,2013-07-29 07:04:00,
2013-07-29 03:10:00,75.4,72.9,30.04,SW,230,4.0,4.0,92,0.00,,,0.00,Wunderground v.1.15,2013-07-29 07:10:00,
2013-07-29 03:16:00,75.4,72.9,30.05,SW,216,2.0,4.0,92,0.00,,,0.00,Wunderground v.1.15,2013-07-29 07:16:00,
2013-07-29 03:22:00,75.7,73.2,30.05,South,184,1.0,2.0,92,0.00,,,0.00,Wunderground v.1.15,2013-07-29 07:22:00,
2013-07-29 03:28:00,75.4,72.9,30.05,South,182,2.0,3.0,92,0.00,,,0.00,Wunderground v.1.15,2013-07-29 07:28:00,
2013-07-29 03:34:00,75.1,72.6,30.05,South,186,2.0,3.0,92,0.00,,,0.00,Wunderground v.1.15,2013-07-29 07:34:00,
2013-07-29 03:40:00,75.1,72.9,30.05,SSW,200,2.0,2.0,93,0.00,,,0.00,Wunderground v.1.15,2013-07-29 07:40:00,
2013-07-29 03:46:00,75.3,73.1,30.05,SW,214,1.0,2.0,93,0.00,,,0.00,Wunderground v.1.15,2013-07-29 07:46:00,
2013-07-29 03:52:00,75.3,72.8,30.05,SSW,211,2.0,3.0,92,0.00,,,0.00,Wunderground v.1.15,2013-07-29 07:52:00,
2013-07-29 03:58:00,75.3,72.8,30.05,SSW,194,2.0,3.0,92,0.00,,,0.00,Wunderground v.1.15,2013-07-29 07:58:00,
2013-07-29 04:04:00,75.3,72.5,30.05,SSW,208,1.0,8.0,91,0.00,,,0.00,Wunderground v.1.15,2013-07-29 08:04:00,
2013-07-29 04:10:00,75.3,72.5,30.05,WSW,245,0.0,2.0,91,0.00,,,0.00,Wunderground v.1.15,2013-07-29 08:10:00,
2013-07-29 04:16:00,75.4,72.6,30.05,SW,217,1.0,2.0,91,0.00,,,0.00,Wunderground v.1.15,2013-07-29 08:16:00,
2013-07-29 04:22:00,75.5,72.7,30.05,WSW,245,1.0,1.0,91,0.00,,,0.00,Wunderground v.1.15,2013-07-29 08:22:00,
2013-07-29 04:28:00,75.5,72.4,30.05,WSW,256,0.0,1.0,90,0.00,,,0.00,Wunderground v.1.15,2013-07-29 08:28:00,
2013-07-29 04:34:00,75.3,72.5,30.05,SSW,210,0.0,0.0,91,0.00,,,0.00,Wunderground v.1.15,2013-07-29 08:34:00,
2013-07-29 04:40:00,75.1,72.3,30.05,SW,222,0.0,0.0,91,0.00,,,0.00,Wunderground v.1.15,2013-07-29 08:40:00,
2013-07-29 04:46:00,75.0,72.5,30.05,SSW,206,0.0,0.0,92,0.00,,,0.00,Wunderground v.1.15,2013-07-29 08:46:00,
2013-07-29 04:52:00,75.1,72.6,30.05,WSW,237,1.0,3.0,92,0.00,,,0.00,Wunderground v.1.15,2013-07-29 08:52:00,
2013-07-29 04:58:00,75.2,72.4,30.05,SW,227,2.0,3.0,91,0.00,,,0.00,Wunderground v.1.15,2013-07-29 08:58:00,
2013-07-29 05:04:00,75.2,72.4,30.05,SW,222,3.0,4.0,91,0.00,,,0.00,Wunderground v.1.15,2013-07-29 09:04:00,
2013-07-29 05:10:00,75.3,72.2,30.06,WSW,238,2.0,2.0,90,0.00,,,0.00,Wunderground v.1.15,2013-07-29 09:10:00,
2013-07-29 05:16:00,75.2,71.7,30.06,SW,230,2.0,3.0,89,0.00,,,0.00,Wunderground v.1.15,2013-07-29 09:16:00,
2013-07-29 05:22:00,75.2,71.7,30.06,WSW,254,3.0,4.0,89,0.00,,,0.00,Wunderground v.1.15,2013-07-29 09:22:00,
2013-07-29 05:28:00,75.3,71.8,30.06,WSW,242,2.0,4.0,89,0.00,,,0.00,Wunderground v.1.15,2013-07-29 09:28:00,
2013-07-29 05:34:00,75.2,71.7,30.06,WSW,250,1.0,3.0,89,0.00,,,0.00,Wunderground v.1.15,2013-07-29 09:34:00,
2013-07-29 05:40:00,75.0,71.5,30.07,WSW,248,2.0,2.0,89,0.00,,,0.00,Wunderground v.1.15,2013-07-29 09:40:00,
2013-07-29 05:46:00,74.9,71.4,30.07,WSW,256,1.0,3.0,89,0.00,,,0.00,Wunderground v.1.15,2013-07-29 09:46:00,
2013-07-29 05:52:00,74.7,71.6,30.07,WSW,240,2.0,2.0,90,0.00,,,0.00,Wunderground v.1.15,2013-07-29 09:52:00,
2013-07-29 05:58:00,74.7,71.2,30.07,WSW,242,2.0,3.0,89,0.00,,,0.00,Wunderground v.1.15,2013-07-29 09:58:00,
2013-07-29 06:04:00,74.6,71.5,30.07,WSW,250,2.0,4.0,90,0.00,,,0.00,Wunderground v.1.15,2013-07-29 10:04:00,
2013-07-29 06:10:00,74.6,71.5,30.08,SW,221,2.0,2.0,90,0.00,,,0.00,Wunderground v.1.15,2013-07-29 10:10:00,
2013-07-29 06:16:00,74.6,71.5,30.08,West,260,2.0,3.0,90,0.00,,,0.00,Wunderground v.1.15,2013-07-29 10:16:00,
2013-07-29 06:22:00,74.5,71.7,30.08,West,267,2.0,3.0,91,0.00,,,0.00,Wunderground v.1.15,2013-07-29 10:22:00,
2013-07-29 06:30:00,74.4,71.6,30.08,WSW,241,2.0,3.0,91,0.00,,,0.00,Wunderground v.1.15,2013-07-29 10:30:00,
2013-07-29 06:36:00,74.3,71.5,30.08,West,261,2.0,3.0,91,0.00,,,0.00,Wunderground v.1.15,2013-07-29 10:36:00,
2013-07-29 06:42:00,74.2,71.4,30.08,WSW,242,2.0,2.0,91,0.00,,,0.00,Wunderground v.1.15,2013-07-29 10:42:00,
2013-07-29 06:48:00,74.1,71.3,30.08,SW,218,1.0,2.0,91,0.00,,,0.00,Wunderground v.1.15,2013-07-29 10:48:00,
2013-07-29 06:54:00,74.2,71.4,30.09,WSW,244,2.0,2.0,91,0.00,,,0.00,Wunderground v.1.15,2013-07-29 10:54:00,
2013-07-29 07:00:00,74.2,71.4,30.09,SW,233,1.0,1.0,91,0.00,,,0.00,Wunderground v.1.15,2013-07-29 11:00:00,
2013-07-29 07:06:00,74.3,71.5,30.09,SW,214,1.0,5.0,91,0.00,,,0.00,Wunderground v.1.15,2013-07-29 11:06:00,
2013-07-29 07:12:00,74.5,71.7,30.09,SW,233,0.0,0.0,91,0.00,,,0.00,Wunderground v.1.15,2013-07-29 11:12:00,
2013-07-29 07:18:00,74.8,72.0,30.09,WSW,238,0.0,0.0,91,0.00,,,0.00,Wunderground v.1.15,2013-07-29 11:18:00,
2013-07-29 07:24:00,75.0,71.9,30.09,SW,229,1.0,2.0,90,0.00,,,0.00,Wunderground v.1.15,2013-07-29 11:24:00,
2013-07-29 07:30:00,75.4,72.3,30.10,SW,215,1.0,1.0,90,0.00,,,0.00,Wunderground v.1.15,2013-07-29 11:30:00,
2013-07-29 07:36:00,75.6,72.5,30.10,SW,235,1.0,1.0,90,0.00,,,0.00,Wunderground v.1.15,2013-07-29 11:36:00,
2013-07-29 07:44:00,76.1,72.6,30.10,SSW,213,1.0,2.0,89,0.00,,,0.00,Wunderground v.1.15,2013-07-29 11:44:00,
2013-07-29 07:50:00,76.6,73.1,30.10,SSW,200,1.0,1.0,89,0.00,,,0.00,Wunderground v.1.15,2013-07-29 11:50:00,
2013-07-29 07:58:00,77.4,73.6,30.10,SSW,199,0.0,2.0,88,0.00,,,0.00,Wunderground v.1.15,2013-07-29 11:58:00,
2013-07-29 08:04:00,77.7,73.9,30.10,SSW,202,1.0,3.0,88,0.00,,,0.00,Wunderground v.1.15,2013-07-29 12:04:00,
2013-07-29 08:10:00,78.0,73.8,30.10,WSW,239,2.0,2.0,87,0.00,,,0.00,Wunderground v.1.15,2013-07-29 12:10:00,
2013-07-29 08:16:00,78.4,74.2,30.11,SSW,194,1.0,2.0,87,0.00,,,0.00,Wunderground v.1.15,2013-07-29 12:16:00,
2013-07-29 08:22:00,78.8,74.3,30.11,SSW,198,2.0,3.0,86,0.00,,,0.00,Wunderground v.1.15,2013-07-29 12:22:00,
2013-07-29 08:28:00,79.3,74.7,30.11,SSW,205,2.0,3.0,86,0.00,,,0.00,Wunderground v.1.15,2013-07-29 12:28:00,
2013-07-29 08:36:00,79.9,75.0,30.11,SSW,194,1.0,2.0,85,0.00,,,0.00,Wunderground v.1.15,2013-07-29 12:36:00,
2013-07-29 08:42:00,80.3,74.7,30.12,SSW,202,2.0,3.0,83,0.00,,,0.00,Wunderground v.1.15,2013-07-29 12:42:00,
2013-07-29 08:48:00,80.5,75.6,30.12,WSW,248,2.0,3.0,85,0.00,,,0.00,Wunderground v.1.15,2013-07-29 12:48:00,
2013-07-29 08:54:00,81.1,75.8,30.12,SSW,194,1.0,2.0,84,0.00,,,0.00,Wunderground v.1.15,2013-07-29 12:54:00,
2013-07-29 09:00:00,81.5,75.1,30.12,SSW,196,2.0,3.0,81,0.00,,,0.00,Wunderground v.1.15,2013-07-29 13:00:00,
2013-07-29 09:06:00,81.4,75.4,30.12,SSW,213,3.0,3.0,82,0.00,,,0.00,Wunderground v.1.15,2013-07-29 13:06:00,
2013-07-29 09:12:00,82.0,75.6,30.12,South,170,2.0,3.0,81,0.00,,,0.00,Wunderground v.1.15,2013-07-29 13:12:00,
2013-07-29 09:18:00,82.7,75.9,30.12,SSW,198,2.0,3.0,80,0.00,,,0.00,Wunderground v.1.15,2013-07-29 13:18:00,
2013-07-29 09:24:00,83.1,76.3,30.12,SSW,198,2.0,2.0,80,0.00,,,0.00,Wunderground v.1.15,2013-07-29 13:24:00,
2013-07-29 09:30:00,84.1,76.5,30.12,SSE,164,1.0,1.0,78,0.00,,,0.00,Wunderground v.1.15,2013-07-29 13:30:00,
2013-07-29 09:38:00,85.1,77.1,30.12,WSW,242,1.0,2.0,77,0.00,,,0.00,Wunderground v.1.15,2013-07-29 13:38:00,
2013-07-29 09:44:00,85.0,77.4,30.12,SSW,209,1.0,1.0,78,0.00,,,0.00,Wunderground v.1.15,2013-07-29 13:44:00,
2013-07-29 09:50:00,86.1,77.6,30.13,SW,230,0.0,2.0,76,0.00,,,0.00,Wunderground v.1.15,2013-07-29 13:50:00,
2013-07-29 09:56:00,85.5,76.7,30.13,WSW,249,2.0,4.0,75,0.00,,,0.00,Wunderground v.1.15,2013-07-29 13:56:00,
2013-07-29 10:02:00,85.2,76.8,30.13,West,280,2.0,5.0,76,0.00,,,0.00,Wunderground v.1.15,2013-07-29 14:02:00,
2013-07-29 10:08:00,84.8,76.4,30.13,NW,325,3.0,7.0,76,0.00,,,0.00,Wunderground v.1.15,2013-07-29 14:08:00,
2013-07-29 10:14:00,84.4,76.0,30.13,NNW,342,5.0,5.0,76,0.00,,,0.00,Wunderground v.1.15,2013-07-29 14:14:00,
2013-07-29 10:26:00,86.5,77.2,30.13,NNW,347,1.0,4.0,74,0.00,,,0.00,Wunderground v.1.15,2013-07-29 14:26:00,
2013-07-29 10:38:00,86.3,74.0,30.13,WSW,250,3.0,4.0,67,0.00,,,0.00,Wunderground v.1.15,2013-07-29 14:38:00,
2013-07-29 10:44:00,85.5,75.0,30.13,NW,309,3.0,3.0,71,0.00,,,0.00,Wunderground v.1.15,2013-07-29 14:44:00,
2013-07-29 10:50:00,85.2,75.1,30.14,NW,326,3.0,5.0,72,0.00,,,0.00,Wunderground v.1.15,2013-07-29 14:50:00,
2013-07-29 11:00:00,85.6,75.1,30.14,WNW,289,2.0,2.0,71,0.00,,,0.00,Wunderground v.1.15,2013-07-29 15:00:00,
2013-07-29 11:06:00,86.2,74.8,30.14,SW,227,2.0,4.0,69,0.00,,,0.00,Wunderground v.1.15,2013-07-29 15:06:00,
2013-07-29 11:12:00,87.5,74.7,30.14,WSW,240,1.0,3.0,66,0.00,,,0.00,Wunderground v.1.15,2013-07-29 15:12:00,
2013-07-29 11:18:00,88.7,75.0,30.14,SSW,202,2.0,3.0,64,0.00,,,0.00,Wunderground v.1.15,2013-07-29 15:18:00,
2013-07-29 11:24:00,89.7,75.4,30.14,SSW,205,2.0,2.0,63,0.00,,,0.00,Wunderground v.1.15,2013-07-29 15:24:00,
2013-07-29 11:32:00,90.2,74.4,30.13,NNE,26,1.0,4.0,60,0.00,,,0.00,Wunderground v.1.15,2013-07-29 15:32:00,
2013-07-29 11:38:00,89.0,75.2,30.13,East,96,2.0,4.0,64,0.00,,,0.00,Wunderground v.1.15,2013-07-29 15:38:00,
2013-07-29 11:44:00,89.5,75.2,30.14,ENE,78,1.0,2.0,63,0.00,,,0.00,Wunderground v.1.15,2013-07-29 15:44:00,
2013-07-29 11:50:00,90.0,75.2,30.14,SSW,201,1.0,1.0,62,0.00,,,0.00,Wunderground v.1.15,2013-07-29 15:50:00,
2013-07-29 11:56:00,90.7,74.9,30.13,South,175,3.0,5.0,60,0.00,,,0.00,Wunderground v.1.15,2013-07-29 15:56:00,
2013-07-29 12:02:00,91.5,75.7,30.13,SSE,159,3.0,8.0,60,0.00,,,0.00,Wunderground v.1.15,2013-07-29 16:02:00,
2013-07-29 12:08:00,92.2,75.8,30.13,NE,36,1.0,8.0,59,0.00,,,0.00,Wunderground v.1.15,2013-07-29 16:08:00,
2013-07-29 12:14:00,92.2,75.8,30.13,SSE,150,1.0,2.0,59,0.00,,,0.00,Wunderground v.1.15,2013-07-29 16:14:00,
2013-07-29 12:24:00,92.7,74.7,30.13,SSW,213,2.0,3.0,56,0.00,,,0.00,Wunderground v.1.15,2013-07-29 16:24:00,
2013-07-29 12:30:00,92.7,74.7,30.13,SSW,213,3.0,3.0,56,0.00,,,0.00,Wunderground v.1.15,2013-07-29 16:30:00,
2013-07-29 12:40:00,93.2,73.5,30.13,ESE,117,2.0,2.0,53,0.00,,,0.00,Wunderground v.1.15,2013-07-29 16:40:00,
2013-07-29 12:46:00,93.1,71.7,30.13,SSW,194,3.0,4.0,50,0.00,,,0.00,Wunderground v.1.15,2013-07-29 16:46:00,
2013-07-29 12:52:00,93.2,71.2,30.13,SSW,198,4.0,5.0,49,0.00,,,0.00,Wunderground v.1.15,2013-07-29 16:52:00,
2013-07-29 13:02:00,94.1,73.2,30.12,South,173,2.0,5.0,51,0.00,,,0.00,Wunderground v.1.15,2013-07-29 17:02:00,
2013-07-29 13:08:00,93.4,72.6,30.12,South,175,3.0,6.0,51,0.00,,,0.00,Wunderground v.1.15,2013-07-29 17:08:00,
2013-07-29 13:16:00,93.8,73.5,30.12,SSW,205,3.0,5.0,52,0.00,,,0.00,Wunderground v.1.15,2013-07-29 17:16:00,
2013-07-29 13:22:00,93.2,72.4,30.12,SW,221,4.0,6.0,51,0.00,,,0.00,Wunderground v.1.15,2013-07-29 17:22:00,
2013-07-29 13:28:00,93.1,71.1,30.12,SSW,205,5.0,8.0,49,0.00,,,0.00,Wunderground v.1.15,2013-07-29 17:28:00,
2013-07-29 13:34:00,92.9,72.1,30.12,SSW,205,4.0,6.0,51,0.00,,,0.00,Wunderground v.1.15,2013-07-29 17:34:00,
2013-07-29 13:40:00,92.7,72.5,30.12,WSW,249,4.0,4.0,52,0.00,,,0.00,Wunderground v.1.15,2013-07-29 17:40:00,
2013-07-29 13:46:00,92.3,73.2,30.12,SW,226,5.0,7.0,54,0.00,,,0.00,Wunderground v.1.15,2013-07-29 17:46:00,
2013-07-29 13:52:00,92.6,72.4,30.11,South,175,5.0,8.0,52,0.00,,,0.00,Wunderground v.1.15,2013-07-29 17:52:00,
2013-07-29 13:58:00,92.7,72.5,30.11,SSE,167,5.0,8.0,52,0.00,,,0.00,Wunderground v.1.15,2013-07-29 17:58:00,
2013-07-29 14:04:00,92.9,73.2,30.11,South,178,4.0,8.0,53,0.00,,,0.00,Wunderground v.1.15,2013-07-29 18:04:00,
2013-07-29 14:10:00,93.6,73.3,30.11,South,178,3.0,5.0,52,0.00,,,0.00,Wunderground v.1.15,2013-07-29 18:10:00,
2013-07-29 14:16:00,94.6,73.7,30.11,South,184,3.0,5.0,51,0.00,,,0.00,Wunderground v.1.15,2013-07-29 18:16:00,
2013-07-29 14:22:00,93.7,77.2,30.11,East,90,4.0,8.0,59,0.00,,,0.00,Wunderground v.1.15,2013-07-29 18:22:00,
2013-07-29 14:30:00,89.7,76.8,30.10,East,94,8.0,8.0,66,0.00,,,0.00,Wunderground v.1.15,2013-07-29 18:30:00,
2013-07-29 14:38:00,88.8,76.4,30.10,SE,136,7.0,15.0,67,0.00,,,0.00,Wunderground v.1.15,2013-07-29 18:38:00,
2013-07-29 14:44:00,89.0,77.1,30.10,SSE,153,8.0,8.0,68,0.00,,,0.00,Wunderground v.1.15,2013-07-29 18:44:00,
2013-07-29 14:50:00,88.1,76.2,30.10,ESE,107,8.0,13.0,68,0.00,,,0.00,Wunderground v.1.15,2013-07-29 18:50:00,
2013-07-29 14:56:00,87.9,76.5,30.10,ESE,103,9.0,13.0,69,0.00,,,0.00,Wunderground v.1.15,2013-07-29 18:56:00,
2013-07-29 15:02:00,88.4,76.9,30.09,SSE,163,8.0,11.0,69,0.00,,,0.00,Wunderground v.1.15,2013-07-29 19:02:00,
2013-07-29 15:08:00,88.4,76.5,30.10,SE,144,8.0,11.0,68,0.00,,,0.00,Wunderground v.1.15,2013-07-29 19:08:00,
2013-07-29 15:14:00,88.2,76.3,30.09,SE,134,9.0,9.0,68,0.00,,,0.00,Wunderground v.1.15,2013-07-29 19:14:00,
2013-07-29 15:20:00,88.4,76.0,30.09,SE,128,8.0,10.0,67,0.00,,,0.00,Wunderground v.1.15,2013-07-29 19:20:00,
2013-07-29 15:28:00,87.7,75.8,30.09,ESE,107,9.0,12.0,68,0.00,,,0.00,Wunderground v.1.15,2013-07-29 19:28:00,
2013-07-29 15:34:00,87.3,75.9,30.09,SSW,205,10.0,11.0,69,0.00,,,0.00,Wunderground v.1.15,2013-07-29 19:34:00,
2013-07-29 15:40:00,87.3,76.3,30.09,SE,131,8.0,8.0,70,0.00,,,0.00,Wunderground v.1.15,2013-07-29 19:40:00,
2013-07-29 15:46:00,87.2,75.8,30.09,ESE,115,8.0,13.0,69,0.00,,,0.00,Wunderground v.1.15,2013-07-29 19:46:00,
2013-07-29 15:52:00,87.5,76.5,30.09,East,94,9.0,13.0,70,0.00,,,0.00,Wunderground v.1.15,2013-07-29 19:52:00,
2013-07-29 16:00:00,87.7,75.8,30.09,SE,136,9.0,9.0,68,0.00,,,0.00,Wunderground v.1.15,2013-07-29 20:00:00,
2013-07-29 16:08:00,87.6,76.2,30.09,SE,137,11.0,16.0,69,0.00,,,0.00,Wunderground v.1.15,2013-07-29 20:08:00,
2013-07-29 16:14:00,87.4,76.0,30.09,South,176,11.0,16.0,69,0.00,,,0.00,Wunderground v.1.15,2013-07-29 20:14:00,
2013-07-29 16:22:00,87.6,76.2,30.09,ESE,107,9.0,10.0,69,0.00,,,0.00,Wunderground v.1.15,2013-07-29 20:22:00,
2013-07-29 16:28:00,87.6,75.7,30.09,SSE,147,9.0,13.0,68,0.00,,,0.00,Wunderground v.1.15,2013-07-29 20:28:00,
2013-07-29 16:34:00,88.3,76.8,30.09,SE,134,8.0,9.0,69,0.00,,,0.00,Wunderground v.1.15,2013-07-29 20:34:00,
2013-07-29 16:40:00,88.3,76.4,30.09,NE,55,7.0,10.0,68,0.00,,,0.00,Wunderground v.1.15,2013-07-29 20:40:00,
2013-07-29 16:48:00,88.1,76.6,30.08,ESE,114,7.0,11.0,69,0.00,,,0.00,Wunderground v.1.15,2013-07-29 20:48:00,
2013-07-29 16:54:00,87.7,76.7,30.08,ENE,74,8.0,12.0,70,0.00,,,0.00,Wunderground v.1.15,2013-07-29 20:54:00,
2013-07-29 17:02:00,87.3,76.7,30.06,NE,37,10.0,17.0,71,0.00,,,0.00,Wunderground v.1.15,2013-07-29 21:02:00,
2013-07-29 17:08:00,87.3,76.7,30.08,SSE,159,10.0,17.0,71,0.00,,,0.00,Wunderground v.1.15,2013-07-29 21:08:00,
2013-07-29 17:14:00,86.8,76.7,30.08,ESE,118,11.0,15.0,72,0.00,,,0.00,Wunderground v.1.15,2013-07-29 21:14:00,
2013-07-29 17:22:00,86.7,76.6,30.08,ESE,110,11.0,17.0,72,0.00,,,0.00,Wunderground v.1.15,2013-07-29 21:22:00,
2013-07-29 17:30:00,87.0,77.3,30.08,ESE,118,10.0,11.0,73,0.00,,,0.00,Wunderground v.1.15,2013-07-29 21:30:00,
2013-07-29 17:36:00,87.1,76.1,30.08,ESE,113,9.0,14.0,70,0.00,,,0.00,Wunderground v.1.15,2013-07-29 21:36:00,
2013-07-29 17:42:00,86.7,75.7,30.08,ESE,114,11.0,16.0,70,0.00,,,0.00,Wunderground v.1.15,2013-07-29 21:42:00,
2013-07-29 17:48:00,86.8,76.3,30.07,ESE,102,10.0,16.0,71,0.00,,,0.00,Wunderground v.1.15,2013-07-29 21:48:00,
2013-07-29 17:54:00,87.2,76.2,30.08,East,91,9.0,11.0,70,0.00,,,0.00,Wunderground v.1.15,2013-07-29 21:54:00,
2013-07-29 18:00:00,86.7,76.2,30.07,East,84,10.0,15.0,71,0.00,,,0.00,Wunderground v.1.15,2013-07-29 22:00:00,
2013-07-29 18:08:00,86.5,76.4,30.07,ESE,103,10.0,18.0,72,0.00,,,0.00,Wunderground v.1.15,2013-07-29 22:08:00,
2013-07-29 18:14:00,86.6,76.5,30.07,SE,144,8.0,10.0,72,0.00,,,0.00,Wunderground v.1.15,2013-07-29 22:14:00,
2013-07-29 18:22:00,86.4,75.9,30.07,SSE,165,6.0,11.0,71,0.00,,,0.00,Wunderground v.1.15,2013-07-29 22:22:00,
2013-07-29 18:28:00,86.5,76.0,30.08,SSE,160,6.0,11.0,71,0.00,,,0.00,Wunderground v.1.15,2013-07-29 22:28:00,
2013-07-29 18:36:00,86.6,76.1,30.08,ESE,111,6.0,12.0,71,0.00,,,0.00,Wunderground v.1.15,2013-07-29 22:36:00,
2013-07-29 18:42:00,86.5,76.0,30.08,SSE,160,7.0,10.0,71,0.00,,,0.00,Wunderground v.1.15,2013-07-29 22:42:00,
2013-07-29 18:48:00,86.3,75.8,30.08,SSW,194,7.0,13.0,71,0.00,,,0.00,Wunderground v.1.15,2013-07-29 22:48:00,
2013-07-29 18:54:00,85.9,75.4,30.08,ESE,105,8.0,10.0,71,0.00,,,0.00,Wunderground v.1.15,2013-07-29 22:54:00,
2013-07-29 19:00:00,85.5,75.4,30.08,SE,146,8.0,8.0,72,0.00,,,0.00,Wunderground v.1.15,2013-07-29 23:00:00,
2013-07-29 19:06:00,85.7,75.6,30.09,SE,129,7.0,19.0,72,0.00,,,0.00,Wunderground v.1.15,2013-07-29 23:06:00,
2013-07-29 19:12:00,85.7,74.8,30.09,SSE,160,6.0,9.0,70,0.00,,,0.00,Wunderground v.1.15,2013-07-29 23:12:00,
2013-07-29 19:18:00,85.7,74.8,30.09,SE,131,6.0,9.0,70,0.00,,,0.00,Wunderground v.1.15,2013-07-29 23:18:00,
2013-07-29 19:24:00,85.5,74.6,30.10,SW,227,5.0,6.0,70,0.00,,,0.00,Wunderground v.1.15,2013-07-29 23:24:00,
2013-07-29 19:30:00,85.5,74.6,30.10,SSW,198,4.0,4.0,70,0.00,,,0.00,Wunderground v.1.15,2013-07-29 23:30:00,
2013-07-29 19:36:00,85.1,74.2,30.10,South,173,5.0,6.0,70,0.00,,,0.00,Wunderground v.1.15,2013-07-29 23:36:00,
2013-07-29 19:42:00,84.6,73.3,30.10,South,186,6.0,7.0,69,0.00,,,0.00,Wunderground v.1.15,2013-07-29 23:42:00,
2013-07-29 19:48:00,84.3,73.0,30.10,SSW,192,7.0,9.0,69,0.00,,,0.00,Wunderground v.1.15,2013-07-29 23:48:00,
2013-07-29 19:54:00,84.1,72.8,30.10,South,178,7.0,9.0,69,0.00,,,0.00,Wunderground v.1.15,2013-07-29 23:54:00,
2013-07-29 20:00:00,83.9,72.6,30.11,SSE,159,6.0,7.0,69,0.00,,,0.00,Wunderground v.1.15,2013-07-30 00:00:00,
2013-07-29 20:06:00,83.8,73.0,30.11,South,188,6.0,15.0,70,0.00,,,0.00,Wunderground v.1.15,2013-07-30 00:06:00,
2013-07-29 20:12:00,83.6,73.2,30.11,SSE,163,6.0,6.0,71,0.00,,,0.00,Wunderground v.1.15,2013-07-30 00:12:00,
2013-07-29 20:20:00,83.4,73.0,30.11,South,188,6.0,6.0,71,0.00,,,0.00,Wunderground v.1.15,2013-07-30 00:20:00,
2013-07-29 20:26:00,83.2,73.2,30.11,South,176,6.0,6.0,72,0.00,,,0.00,Wunderground v.1.15,2013-07-30 00:26:00,
2013-07-29 20:34:00,83.1,73.1,30.11,SSE,164,5.0,5.0,72,0.00,,,0.00,Wunderground v.1.15,2013-07-30 00:34:00,
2013-07-29 20:40:00,83.0,73.4,30.12,SSW,197,5.0,5.0,73,0.00,,,0.00,Wunderground v.1.15,2013-07-30 00:40:00,
2013-07-29 20:46:00,82.8,73.3,30.11,SSE,159,5.0,5.0,73,0.00,,,0.00,Wunderground v.1.15,2013-07-30 00:46:00,
2013-07-29 20:54:00,82.6,73.5,30.11,SSW,192,5.0,6.0,74,0.00,,,0.00,Wunderground v.1.15,2013-07-30 00:54:00,
2013-07-29 21:00:00,82.5,73.8,30.11,SSW,199,5.0,5.0,75,0.00,,,0.00,Wunderground v.1.15,2013-07-30 01:00:00,
2013-07-29 21:06:00,82.4,73.7,30.12,South,175,5.0,14.0,75,0.00,,,0.00,Wunderground v.1.15,2013-07-30 01:06:00,
2013-07-29 21:12:00,82.3,74.0,30.12,South,172,5.0,5.0,76,0.00,,,0.00,Wunderground v.1.15,2013-07-30 01:12:00,
2013-07-29 21:18:00,82.1,74.2,30.13,SSW,207,4.0,5.0,77,0.00,,,0.00,Wunderground v.1.15,2013-07-30 01:18:00,
2013-07-29 21:24:00,82.1,74.2,30.13,South,179,3.0,3.0,77,0.00,,,0.00,Wunderground v.1.15,2013-07-30 01:24:00,
2013-07-29 21:30:00,81.8,74.6,30.13,South,172,4.0,5.0,79,0.00,,,0.00,Wunderground v.1.15,2013-07-30 01:30:00,
2013-07-29 21:36:00,81.6,74.8,30.13,SSE,153,6.0,6.0,80,0.00,,,0.00,Wunderground v.1.15,2013-07-30 01:36:00,
2013-07-29 21:42:00,81.5,74.7,30.14,SSW,196,5.0,6.0,80,0.00,,,0.00,Wunderground v.1.15,2013-07-30 01:42:00,
2013-07-29 21:50:00,81.5,74.7,30.15,SSE,164,6.0,6.0,80,0.00,,,0.00,Wunderground v.1.15,2013-07-30 01:50:00,
2013-07-29 21:56:00,81.4,75.0,30.15,SSE,155,6.0,6.0,81,0.00,,,0.00,Wunderground v.1.15,2013-07-30 01:56:00,
2013-07-29 22:02:00,81.3,74.9,30.15,SSE,167,5.0,9.0,81,0.00,,,0.00,Wunderground v.1.15,2013-07-30 02:02:00,
2013-07-29 22:10:00,81.3,75.3,30.15,SW,214,7.0,7.0,82,0.00,,,0.00,Wunderground v.1.15,2013-07-30 02:10:00,
2013-07-29 22:16:00,81.2,75.2,30.16,SSW,200,6.0,7.0,82,0.00,,,0.00,Wunderground v.1.15,2013-07-30 02:16:00,
2013-07-29 22:24:00,80.9,75.2,30.15,South,172,4.0,6.0,83,0.00,,,0.00,Wunderground v.1.15,2013-07-30 02:24:00,
2013-07-29 22:36:00,81.2,75.5,30.16,South,191,4.0,5.0,83,0.00,,,0.00,Wunderground v.1.15,2013-07-30 02:36:00,
2013-07-29 22:44:00,81.0,75.3,30.16,South,184,5.0,5.0,83,0.00,,,0.00,Wunderground v.1.15,2013-07-30 02:44:00,
2013-07-29 22:50:00,81.1,75.4,30.17,WSW,238,3.0,3.0,83,0.00,,,0.00,Wunderground v.1.15,2013-07-30 02:50:00,
2013-07-29 22:56:00,81.2,75.5,30.17,South,179,2.0,4.0,83,0.00,,,0.00,Wunderground v.1.15,2013-07-30 02:56:00,
2013-07-29 23:04:00,81.1,75.4,30.17,South,186,3.0,9.0,83,0.00,,,0.00,Wunderground v.1.15,2013-07-30 03:04:00,
2013-07-29 23:10:00,81.3,75.6,30.16,South,186,3.0,4.0,83,0.00,,,0.00,Wunderground v.1.15,2013-07-30 03:10:00,
2013-07-29 23:16:00,81.1,75.4,30.16,SSE,165,4.0,6.0,83,0.00,,,0.00,Wunderground v.1.15,2013-07-30 03:16:00,
2013-07-29 23:24:00,81.0,75.3,30.16,SSE,165,4.0,5.0,83,0.00,,,0.00,Wunderground v.1.15,2013-07-30 03:24:00,
2013-07-29 23:30:00,81.0,75.3,30.16,South,178,3.0,3.0,83,0.00,,,0.00,Wunderground v.1.15,2013-07-30 03:30:00,
2013-07-29 23:36:00,81.1,75.4,30.16,South,187,3.0,3.0,83,0.00,,,0.00,Wunderground v.1.15,2013-07-30 03:36:00,
2013-07-29 23:42:00,81.2,75.5,30.16,SW,224,2.0,2.0,83,0.00,,,0.00,Wunderground v.1.15,2013-07-30 03:42:00,
2013-07-29 23:48:00,81.2,75.5,30.16,WSW,249,1.0,2.0,83,0.00,,,0.00,Wunderground v.1.15,2013-07-30 03:48:00,
2013-07-29 23:58:00,81.3,75.6,30.16,SSW,211,1.0,2.0,83,0.00,,,0.00,Wunderground v.1.15,2013-07-30 03:58:00,